Location: Casteau
(50.5142°N, 4.0161°E)
Time: 18:06:44
(UTC+00:00)

S-56A Canister/Altair - Pass Details

Date: 01 August 2021
Orbit: 632 x 2500 km, 38.9° (Epoch: 20 September)

Event Time Altitude Azimuth Distance (km) Brightness Sun altitude
Rises 19:13:56 0° 275° (W) 6,135 13.6 1.1°
Reaches altitude 10° 19:18:18 10° 268° (W) 5,166 12.9 0.5°
Maximum altitude 19:31:24 38° 209° (SSW) 3,201 10.7 -1.3°
Drops below altitude 10° 19:42:31 10° 147° (SSE) 4,383 10.8 -2.8°
Enters shadow 19:45:27 - 140° (SE) 5,034 11.1 -3.2°
Sets 19:45:54 0° 140° (SE) 5,142 - -3.3°
